CW4221 Weather Reports


Display with metric or nautical units.
time (UTC)temp
F
wind
direction
speed
MPH
gust
MPH
rain 1hr
in
rain 24hr
in
rain mn
in
humidity
%
barometer
mb
20260505053316 65 214 0.0 1.0 0.00 0.00 0.00 73 1005.8
20260505052815 65 223 0.0 1.0 0.00 0.00 0.00 73 1005.7
20260505052311 65 215 0.0 1.0 0.00 0.00 0.00 73 1005.8
20260505051827 65 111 0.0 1.0 0.00 0.00 0.00 73 1005.8
20260505051322 65 215 0.0 1.0 0.00 0.00 0.00 73 1005.7
20260505050818 65 209 0.0 0.0 0.00 0.00 0.00 72 1005.6
20260505050315 65 190 0.0 0.0 0.00 0.00 0.00 72 1005.6
20260505041322 67 218 0.0 0.0 0.00 0.00 0.00 69 1006.2
20260505040817 67 199 0.0 2.0 0.00 0.00 0.00 69 1006.4
20260505040313 67 211 0.0 2.0 0.00 0.00 0.00 69 1006.5
20260505035849 67 213 0.0 2.0 0.00 0.00 0.00 69 1006.6
20260505035325 67 213 0.0 7.0 0.00 0.00 0.00 68 1006.6
20260505034821 68 163 0.0 7.0 0.00 0.00 0.00 68 1006.7
20260505034317 68 163 0.0 0.0 0.00 0.00 0.00 68 1006.6
20260505033814 68 203 0.0 2.0 0.00 0.00 0.00 67 1006.6
20260505033315 68 213 0.0 2.0 0.00 0.00 0.00 67 1006.8
20260505032811 68 203 0.0 0.0 0.00 0.00 0.00 67 1006.9
20260505032329 68 216 0.0 0.0 0.00 0.00 0.00 66 1006.8
20260505031825 69 209 0.0 0.0 0.00 0.00 0.00 66 1006.9
20260505031320 69 211 0.0 10.0 0.00 0.00 0.00 66 1006.9
20260505030816 69 223 1.0 10.0 0.00 0.00 0.00 65 1006.9
20260505025845 69 192 0.0 4.0 0.00 0.00 0.00 65 1006.8
20260505025319 69 184 0.0 1.0 0.00 0.00 0.00 65 1006.7
20260505024816 69 218 0.0 1.0 0.00 0.00 0.00 65 1006.7
20260505024312 69 215 0.0 1.0 0.00 0.00 0.00 65 1006.6
20260505023829 69 248 0.0 1.0 0.00 0.00 0.00 65 1006.6
20260505023309 70 206 0.0 1.0 0.00 0.00 0.00 65 1006.5
20260505022824 70 209 0.0 0.0 0.00 0.00 0.00 65 1006.4
20260505022321 70 222 0.0 4.0 0.00 0.00 0.00 64 1006.3
20260505021817 70 221 0.0 0.0 0.00 0.00 0.00 64 1006.2
20260505021314 70 209 0.0 0.0 0.00 0.00 0.00 64 1006.2
20260505020829 70 212 0.0 1.0 0.00 0.00 0.00 63 1006.1
20260505020325 70 228 0.0 1.0 0.00 0.00 0.00 63 1006.1
20260505015840 70 215 0.0 0.0 0.00 0.00 0.00 63 1005.9
20260505015314 70 223 0.0 0.0 0.00 0.00 0.00 62 1005.7
20260505014810 71 208 0.0 0.0 0.00 0.00 0.00 62 1005.8
20260505014310 71 216 0.0 0.0 0.00 0.00 0.00 62 1005.7
20260505013827 71 223 0.0 0.0 0.00 0.00 0.00 61 1005.6
20260505013323 71 213 0.0 1.0 0.00 0.00 0.00 60 1005.6
20260505012819 71 219 0.0 1.0 0.00 0.00 0.00 60 1005.5
20260505012315 72 215 0.0 3.0 0.00 0.00 0.00 59 1005.5
20260505011811 72 212 0.0 3.0 0.00 0.00 0.00 59 1005.5
20260505011348 72 175 0.0 0.0 0.00 0.00 0.00 58 1005.4
20260505010824 73 215 0.0 2.0 0.00 0.00 0.00 57 1005.4
20260505010325 73 218 0.0 3.0 0.00 0.00 0.00 57 1005.2
20260505005821 73 214 0.0 3.0 0.00 0.00 0.00 56 1005.2
20260505005317 73 234 0.0 0.0 0.00 0.00 0.00 55 1005.2
20260505004813 74 224 0.0 2.0 0.00 0.00 0.00 55 1005.0
20260505004329 74 226 0.0 2.0 0.00 0.00 0.00 55 1005.0
20260505003824 74 227 0.0 5.0 0.00 0.00 0.00 54 1005.0
20260505003320 74 220 0.0 5.0 0.00 0.00 0.00 54 1005.0
20260505002821 74 221 0.0 4.0 0.00 0.00 0.00 54 1004.9
20260505002318 75 169 0.0 4.0 0.00 0.00 0.00 53 1004.9
20260505001834 75 216 0.0 1.0 0.00 0.00 0.00 53 1004.9
20260505001309 75 224 0.0 1.0 0.00 0.00 0.00 53 1004.9
20260505000825 75 221 0.0 4.0 0.00 0.00 0.00 53 1005.0
20260505000343 76 233 0.0 4.0 0.00 0.00 0.00 51 1005.0
20260504235836 76 217 0.0 7.0 0.00 0.00 0.00 51 1005.0
20260504235332 77 252 1.0 7.0 0.00 0.00 0.00 50 1005.0
20260504234847 77 207 0.0 5.0 0.00 0.00 0.00 50 1005.0
20260504234342 78 235 0.0 6.0 0.00 0.00 0.00 49 1005.0
20260504233817 78 232 0.0 4.0 0.00 0.00 0.00 50 1004.9
20260504233317 78 223 0.0 11.0 0.00 0.00 0.00 49 1005.0
20260504232833 78 229 1.0 11.0 0.00 0.00 0.00 48 1004.9
20260504232328 79 168 0.0 10.0 0.00 0.00 0.00 49 1005.0
20260504231825 79 248 1.0 10.0 0.00 0.00 0.00 48 1005.0
20260504231342 79 212 1.0 8.0 0.00 0.00 0.00 48 1005.0
20260504230817 79 208 0.0 16.0 0.00 0.00 0.00 48 1005.0
20260504230313 79 269 1.0 17.0 0.00 0.00 0.00 48 1004.9
20260504225809 79 203 2.0 17.0 0.00 0.00 0.00 47 1005.0
20260504225309 79 189 3.0 15.0 0.00 0.00 0.00 47 1005.0
20260504224827 79 204 0.0 9.0 0.00 0.00 0.00 48 1005.0
20260504224323 80 209 0.0 10.0 0.00 0.00 0.00 48 1004.9
20260504223818 80 261 0.0 11.0 0.00 0.00 0.00 48 1004.9
20260504223313 80 231 1.0 14.0 0.00 0.00 0.00 47 1005.0
20260504222829 80 209 1.0 10.0 0.00 0.00 0.00 47 1005.0
20260504222324 79 240 0.0 10.0 0.00 0.00 0.00 48 1005.0
20260504221820 79 270 1.0 10.0 0.00 0.00 0.00 48 1005.0
20260504221320 79 212 1.0 11.0 0.00 0.00 0.00 48 1005.1
20260504220816 79 211 0.0 11.0 0.00 0.00 0.00 48 1005.0
20260504220333 80 227 1.0 10.0 0.00 0.00 0.00 47 1005.1
20260504215828 80 224 0.0 8.0 0.00 0.00 0.00 49 1005.0
20260504215344 80 219 0.0 16.0 0.00 0.00 0.00 49 1005.0
20260504214820 80 213 3.0 16.0 0.00 0.00 0.00 48 1005.1
20260504214315 80 148 0.0 13.0 0.00 0.00 0.00 49 1005.1
20260504213830 80 140 0.0 2.0 0.00 0.00 0.00 49 1005.1
20260504213325 79 248 0.0 15.0 0.00 0.00 0.00 49 1005.2
20260504212826 79 145 2.0 15.0 0.00 0.00 0.00 48 1005.3
20260504212323 80 260 2.0 13.0 0.00 0.00 0.00 48 1005.4
20260504211819 80 248 1.0 10.0 0.00 0.00 0.00 48 1005.5
20260504211316 80 198 2.0 14.0 0.00 0.00 0.00 48 1005.5
20260504210811 80 258 3.0 14.0 0.00 0.00 0.00 48 1005.5
20260504210328 80 249 2.0 16.0 0.00 0.00 0.00 49 1005.6
20260504205823 80 213 2.0 16.0 0.00 0.00 0.00 47 1005.6
20260504205320 80 246 2.0 16.0 0.00 0.00 0.00 47 1005.7
20260504204820 80 217 2.0 15.0 0.00 0.00 0.00 49 1005.7
20260504204316 81 277 3.0 14.0 0.00 0.00 0.00 48 1005.8
20260504203812 80 218 2.0 15.0 0.00 0.00 0.00 48 1005.8
20260504203329 80 182 3.0 15.0 0.00 0.00 0.00 48 1005.9
20260504202824 80 163 0.0 13.0 0.00 0.00 0.00 49 1005.9
20260504202320 80 239 1.0 12.0 0.00 0.00 0.00 50 1006.0
20260504201836 80 202 1.0 18.0 0.00 0.00 0.00 49 1006.1
20260504201313 80 227 1.0 9.0 0.00 0.00 0.00 49 1006.1
20260504200810 80 235 1.0 10.0 0.00 0.00 0.00 48 1006.2
20260504200325 80 229 1.0 8.0 0.00 0.00 0.00 49 1006.2
20260504195821 80 202 0.0 16.0 0.00 0.00 0.00 50 1006.3
20260504195317 80 263 1.0 16.0 0.00 0.00 0.00 49 1006.4
20260504194813 80 243 2.0 18.0 0.00 0.00 0.00 47 1006.5
20260504194309 80 215 2.0 18.0 0.00 0.00 0.00 48 1006.6
20260504193824 80 230 4.0 17.0 0.00 0.00 0.00 47 1006.5
20260504193319 80 225 3.0 17.0 0.00 0.00 0.00 48 1006.6
20260504192820 80 226 0.0 12.0 0.00 0.00 0.00 51 1006.5
20260504192316 80 167 2.0 12.0 0.00 0.00 0.00 50 1006.6
20260504191812 80 212 1.0 8.0 0.00 0.00 0.00 48 1006.6
20260504191328 80 218 0.0 9.0 0.00 0.00 0.00 49 1006.6
20260504190824 80 226 0.0 11.0 0.00 0.00 0.00 49 1006.6
20260504190320 80 194 0.0 16.0 0.00 0.00 0.00 51 1006.7
20260504185815 79 257 1.0 16.0 0.00 0.00 0.00 49 1006.8
20260504185316 79 169 1.0 10.0 0.00 0.00 0.00 49 1006.8
20260504184811 79 215 1.0 15.0 0.00 0.00 0.00 50 1006.8
20260504184327 80 146 4.0 15.0 0.00 0.00 0.00 49 1006.8
20260504183821 80 216 0.0 18.0 0.00 0.00 0.00 51 1006.7
20260504183317 80 198 3.0 18.0 0.00 0.00 0.00 50 1006.7
20260504182812 80 223 2.0 12.0 0.00 0.00 0.00 51 1006.7
20260504182328 79 212 1.0 16.0 0.00 0.00 0.00 51 1006.7
20260504181824 79 248 3.0 16.0 0.00 0.00 0.00 50 1006.6
20260504181320 80 230 1.0 10.0 0.00 0.00 0.00 50 1006.5
20260504180841 80 191 0.0 8.0 0.00 0.00 0.00 51 1006.6
20260504180316 79 219 0.0 8.0 0.00 0.00 0.00 53 1006.6
20260504175832 79 190 0.0 13.0 0.00 0.00 0.00 50 1006.6
20260504175326 78 225 1.0 18.0 0.00 0.00 0.00 52 1006.7
20260504174842 78 208 4.0 18.0 0.00 0.00 0.00 49 1006.8
20260504174319 78 205 2.0 16.0 0.00 0.00 0.00 50 1006.8
20260504173815 78 259 3.0 16.0 0.00 0.00 0.00 51 1006.9
20260504173312 78 212 4.0 13.0 0.00 0.00 0.00 50 1007.0
20260504172850 78 225 2.0 11.0 0.00 0.00 0.00 52 1007.0
20260504172309 77 198 1.0 20.0 0.00 0.00 0.00 51 1006.9
20260504171825 77 240 7.0 20.0 0.00 0.00 0.00 50 1007.0
20260504171320 77 191 3.0 24.0 0.00 0.00 0.00 51 1007.1
20260504170816 77 198 7.0 24.0 0.00 0.00 0.00 50 1007.0
20260504170313 77 223 5.0 19.0 0.00 0.00 0.00 51 1007.0
20260504160311 75 217 2.0 16.0 0.00 0.00 0.00 51 1007.7
20260504150810 72 237 2.0 15.0 0.00 0.00 0.00 52 1008.1
20260504150327 72 205 2.0 15.0 0.00 0.00 0.00 53 1008.2
20260504141328 69 242 7.0 13.0 0.00 0.00 0.00 56 1008.6
20260504140823 69 254 5.0 18.0 0.00 0.00 0.00 57 1008.7
20260504140340 69 267 1.0 18.0 0.00 0.00 0.00 58 1008.8
20260504130821 65 168 0.0 8.0 0.00 0.00 0.00 62 1009.0
20260504130318 64 215 0.0 8.0 0.00 0.00 0.00 62 1009.0
20260504120318 61 219 0.0 0.0 0.00 0.00 0.00 65 1009.4
20260504110315 61 217 0.0 0.0 0.00 0.00 0.00 64 1009.4
20260504100309 61 200 0.0 0.0 0.00 0.00 0.00 65 1009.6
20260504081844 62 211 0.0 0.0 0.00 0.00 0.00 63 1010.0
20260504081319 63 207 0.0 0.0 0.00 0.00 0.00 64 1009.9
20260504080816 63 240 0.0 0.0 0.00 0.00 0.00 64 1010.0
20260504080333 63 209 0.0 0.0 0.00 0.00 0.00 64 1010.0
20260504070320 64 236 0.0 1.0 0.00 0.00 0.00 62 1010.5